Theta_e
292 293 294 294 295 296 297 297 297 297 297 297 298 299 300 300 299 294 292 294 290 283 284 284 285 283 287 290 287 286 288 287 285 286 278 274 271 278 276 281 283 280 280 279 274 269 275 285 284 284 287 286 287 287
292 292 293 294 295 296 296 297 296 296 297 297 297 298 298 298 298 296 289 294 294 286 285 287 285 288 287 286 289 286 286 286 289 284 278 275 277 274 273 278 282 280 283 280 284 283 287 285 285 286 287 288 288 289
292 292 292 294 294 295 295 296 296 296 296 296 296 297 298 298 297 296 291 291 290 284 284 284 283 287 289 288 290 287 286 289 286 287 281 275 275 276 273 272 279 281 280 281 283 282 284 285 285 285 287 287 287 288
292 292 292 293 294 294 294 295 295 295 295 295 296 296 297 297 297 296 291 291 288 285 280 282 288 285 288 294 293 293 290 290 289 287 283 276 279 282 276 280 279 281 283 278 277 280 281 283 284 286 286 287 287 287
291 292 292 293 293 293 293 294 294 294 294 294 295 296 297 297 296 294 293 292 291 285 279 281 285 286 288 291 290 291 290 287 285 284 282 280 281 280 280 279 276 282 282 282 280 285 285 285 285 285 285 286 287 287
290 291 292 292 292 292 292 292 292 293 293 293 294 295 296 295 291 286 284 290 292 287 281 276 283 283 285 287 286 285 287 286 286 284 281 280 281 280 278 271 280 283 286 285 286 287 287 286 286 285 286 285 285 285
290 291 291 291 291 291 291 291 292 292 292 293 293 294 295 295 288 281 280 287 293 287 279 275 277 283 284 284 284 284 285 283 285 284 281 278 279 280 276 274 280 284 284 284 284 286 286 284 283 283 285 283 280 278
289 289 290 290 290 290 290 290 291 291 291 292 294 294 294 292 289 285 290 292 290 280 278 273 274 278 283 280 280 283 282 283 281 280 281 280 281 280 279 281 282 282 283 283 281 281 282 282 281 280 279 279 279 278
287 287 288 288 289 289 289 290 291 291 291 293 294 293 287 280 275 284 294 292 287 281 270 270 269 269 281 279 281 281 281 278 280 279 279 280 277 274 273 277 275 274 276 278 277 277 278 277 278 277 276 277 277 276
286 287 287 288 288 288 288 289 289 291 292 293 286 280 274 283 292 286 279 277 277 272 272 268 269 271 278 275 274 277 277 275 274 276 278 274 272 271 270 268 268 269 270 269 274 274 274 274 274 273 271 271 271 272
286 286 286 287 287 288 288 288 289 291 289 278 274 274 284 287 276 268 266 268 265 267 268 268 269 273 278 272 271 277 271 271 271 273 274 271 272 269 265 264 265 264 265 264 265 267 267 266 267 268 267 265 265 265
285 285 286 286 287 288 288 288 289 286 282 279 282 280 274 267 264 265 258 262 263 263 268 268 271 274 277 277 273 271 269 269 267 271 272 269 267 260 260 260 261 259 258 259 259 259 260 261 259 261 260 258 258 260
285 286 286 286 287 288 288 288 289 290 287 283 274 267 268 264 262 258 257 259 261 263 269 272 270 271 274 276 267 269 268 264 272 268 266 265 261 258 257 257 257 257 256 256 255 256 256 257 256 254 255 254 255 257
285 286 287 287 288 288 287 288 289 288 279 276 265 261 260 260 257 254 255 255 262 266 270 272 270 270 268 270 268 266 264 271 262 262 264 258 255 254 255 255 254 253 253 253 252 253 254 254 254 252 251 250 251 254
285 286 286 285 285 286 286 287 284 271 270 267 264 258 256 255 255 257 258 261 264 266 267 269 269 271 268 268 266 262 263 258 258 260 254 254 253 253 253 252 252 252 251 251 251 251 251 251 250 249 249 249 249 250
283 283 282 285 284 284 282 276 271 269 258 259 251 256 257 255 259 258 256 257 263 263 262 264 262 264 263 262 263 259 258 258 258 251 251 252 251 251 250 250 250 250 249 249 249 249 249 249 249 248 247 247 248 247
282 272 284 284 282 278 277 268 267 257 256 255 253 248 249 250 250 251 251 256 260 259 263 256 260 259 261 258 257 254 254 252 248 250 250 248 248 249 248 249 250 249 249 249 249 250 249 250 248 250 250 250 247 245
270 275 282 282 277 272 263 263 260 257 253 253 254 253 251 251 252 252 254 256 256 255 255 258 260 255 251 256 253 248 249 248 249 250 252 249 248 247 247 248 249 249 248 248 246 246 246 248 250 249 248 248 249 249
278 278 279 279 274 265 262 260 259 253 251 252 253 253 251 251 253 254 254 255 253 250 254 254 250 245 245 246 244 245 245 246 247 249 250 249 250 250 250 249 248 247 250 248 245 246 245 242 245 246 246 246 246 246
278 278 277 275 271 261 257 255 256 255 250 253 251 251 250 252 251 250 253 252 250 248 246 245 244 243 245 245 246 245 245 247 243 243 246 251 252 250 248 247 248 247 248 250 249 250 248 247 245 245 244 245 245 247
271 272 272 266 262 257 253 252 252 250 249 252 246 249 249 248 246 247 248 249 248 245 244 244 244 247 248 246 243 242 246 246 245 245 243 245 247 249 250 251 249 248 245 246 247 248 247 245 246 246 242 244 244 244
266 270 261 264 260 255 253 252 252 250 252 247 249 246 246 246 245 247 247 248 245 246 243 244 244 244 244 244 244 245 245 245 246 247 248 248 246 247 247 245 244 245 244 244 244 244 245 246 246 245 243 246 246 245
263 263 257 256 257 254 250 252 251 249 251 249 246 249 247 244 246 248 245 240 242 244 243 242 241 240 241 241 240 241 240 240 240 240 242 243 242 243 243 244 244 245 246 246 242 243 244 247 247 247 246 245 244 245
258 249 249 247 249 245 247 248 249 248 248 247 247 245 246 244 249 248 243 240 244 240 240 240 235 242 240 239 240 240 240 237 238 241 240 238 241 243 240 242 241 241 244 244 243 243 244 244 247 246 245 243 243 243
253 245 246 244 245 246 245 245 244 247 243 242 244 245 245 244 246 244 244 245 243 241 241 237 237 238 239 239 240 240 238 239 241 242 243 239 238 240 244 242 244 244 241 241 242 242 243 243 243 243 243 242 243 244
242 240 242 238 242 243 240 242 240 240 238 242 240 241 241 244 247 245 244 244 242 242 242 242 241 240 240 242 241 242 243 239 238 239 244 241 241 242 242 243 246 247 243 241 241 241 243 244 242 244 245 245 245 243
245 241 239 238 238 238 240 238 238 240 239 240 238 240 243 245 245 247 247 247 246 246 244 243 242 243 244 246 244 245 245 240 243 246 246 245 245 245 246 245 245 246 242 240 240 240 242 243 243 243 243 244 243 243
237 236 240 240 238 235 238 237 238 239 238 237 236 243 245 245 247 248 249 248 244 241 240 243 243 244 244 245 245 244 244 238 238 242 244 245 245 246 245 247 248 252 248 245 244 244 242 242 243 243 243 244 246 246
237 234 234 240 237 239 236 239 238 236 236 234 239 242 243 244 243 242 245 242 236 238 242 244 244 235 241 240 241 241 240 237 241 244 243 246 244 248 241 242 242 242 242 242 246 251 249 246 246 246 246 247 248 248
237 230 238 237 241 242 239 234 234 230 229 231 231 236 238 239 240 237 237 237 240 244 242 240 240 235 242 238 244 245 241 240 243 246 246 248 249 244 239 240 243 245 246 243 244 245 248 247 247 243 245 246 246 247
232 231 237 236 240 236 232 227 225 227 227 227 225 231 236 236 238 240 240 239 238 235 238 245 244 237 238 240 238 239 249 243 242 243 245 247 247 247 248 248 248 247 244 243 243 243 244 244 244 244 244 244 245 246
234 233 238 243 241 233 229 230 230 231 231 231 233 227 233 236 242 248 244 238 238 240 246 243 241 249 246 246 245 246 249 251 249 248 244 246 247 247 248 248 247 246 245 245 245 244 244 243 244 244 245 245 246 246
233 230 230 235 239 240 235 234 237 239 235 235 237 235 234 239 247 250 245 244 251 250 251 251 250 249 248 247 248 249 249 249 249 252 253 253 251 251 250 250 248 247 246 246 246 246 245 245 244 245 245 245 245 246
Wind_Speed
5 5 7 4 5 9 13 14 15 14 11 9 10 11 13 7 9 4 1 2 2 1 2 4 3 4 2 6 10 6 6 2 4 11 6 4 5 7 5 5 10 8 9 6 3 1 13 8 4 11 4 1 1 2
7 5 6 7 8 11 10 11 11 11 10 9 10 10 11 7 6 5 2 2 2 3 1 1 1 2 5 6 3 3 2 5 7 6 2 5 4 3 6 4 1 2 7 9 13 8 5 4 2 3 2 2 3 3
10 7 6 10 12 13 13 13 12 10 8 8 9 10 8 8 5 4 2 1 1 2 1 2 5 6 6 4 5 5 1 5 3 3 5 4 6 4 5 5 4 3 1 4 5 4 5 3 2 1 1 4 1 3
12 8 6 8 11 14 13 15 14 13 11 10 10 8 8 7 6 4 2 2 3 0 3 2 3 4 13 9 3 1 7 6 5 2 4 4 5 3 4 4 4 4 6 6 3 5 2 2 3 4 2 3 3 2
10 11 10 10 13 14 14 14 14 12 10 10 9 8 9 11 13 8 4 2 1 1 3 1 3 7 12 11 15 13 6 6 2 4 4 3 2 4 0 3 1 3 4 4 5 4 4 2 4 3 2 4 7 7
9 11 12 14 15 15 14 13 11 10 9 8 7 8 8 6 4 4 2 2 3 1 4 3 2 4 6 8 11 11 7 5 4 4 3 3 1 3 4 2 4 3 2 3 3 3 5 7 6 4 6 5 5 5
10 12 15 15 13 15 15 13 10 8 7 7 6 8 13 10 4 4 3 3 7 1 4 2 3 5 5 5 5 5 8 4 5 3 3 2 2 4 2 3 2 0 3 4 6 2 6 7 3 5 5 5 5 4
13 14 13 13 13 13 12 12 10 8 5 3 7 10 8 5 5 4 5 9 3 4 3 4 2 3 5 2 3 4 3 2 6 3 2 3 2 2 4 5 7 7 2 6 8 8 4 6 7 6 5 4 7 6
12 12 11 12 11 11 12 12 11 7 4 8 10 9 4 6 4 2 7 8 3 4 4 3 4 3 4 3 2 3 3 5 3 4 3 2 1 5 7 8 11 14 9 9 4 7 9 9 8 7 4 7 7 6
10 11 11 11 10 11 10 10 10 8 7 9 6 4 3 2 6 8 7 4 6 5 5 3 1 2 3 3 2 3 3 3 3 2 1 4 3 9 12 12 11 15 15 16 5 7 8 7 8 7 8 5 5 4
9 10 10 10 10 10 8 8 8 8 7 4 3 1 2 9 4 5 4 5 5 6 4 1 1 3 4 3 2 3 2 2 4 1 2 2 3 5 12 12 14 15 14 13 9 8 7 5 5 6 6 9 8 8
9 9 10 9 9 9 8 8 7 4 1 3 4 3 4 7 6 8 2 5 5 2 3 1 1 1 1 1 4 4 4 2 3 1 4 2 4 9 12 12 12 13 13 12 11 10 10 11 9 6 6 7 8 7
9 8 8 8 9 10 13 9 6 7 7 3 5 6 5 4 8 6 0 4 1 2 3 2 2 1 3 3 4 4 6 1 1 5 2 3 4 8 10 10 11 10 11 10 11 10 10 7 9 9 7 7 7 7
7 8 11 15 15 12 11 10 5 7 4 3 4 5 4 4 2 3 4 4 3 3 2 2 2 3 2 5 1 6 1 3 4 3 2 2 7 9 8 8 8 10 10 9 9 9 8 8 6 5 6 5 5 9
7 12 12 13 13 11 11 14 16 7 5 4 5 3 4 2 1 2 3 2 4 4 3 2 4 3 5 5 4 4 5 3 3 3 1 4 7 7 8 9 8 8 8 8 7 8 8 8 6 4 7 7 6 6
7 10 8 13 13 13 8 9 8 4 6 6 12 4 2 3 3 4 5 4 6 6 2 3 4 6 4 2 5 3 5 2 1 1 1 4 5 6 7 8 7 6 6 6 6 6 6 6 6 5 5 5 6 5
13 3 15 9 7 14 18 6 5 9 7 7 4 2 0 2 2 3 3 5 6 3 3 3 7 3 1 5 4 5 3 1 2 2 2 2 4 6 6 6 6 6 6 6 5 6 6 6 5 5 9 8 5 3
3 4 14 9 5 6 5 7 6 7 9 3 4 4 2 2 3 3 4 4 5 3 2 2 3 7 3 4 1 1 3 3 2 2 3 2 3 4 3 5 6 5 6 6 4 4 3 6 6 5 6 6 6 6
10 9 18 11 6 6 6 6 5 7 3 1 1 2 2 1 0 2 4 5 2 1 4 5 9 4 1 0 1 2 1 2 3 5 6 4 2 4 5 4 4 4 6 5 5 4 4 3 2 4 5 4 3 4
9 19 14 17 7 6 8 5 4 7 4 1 3 4 1 2 3 3 6 7 4 5 11 9 2 2 1 2 2 3 3 3 1 4 3 2 2 4 4 3 3 4 4 4 2 3 3 3 2 3 3 3 3 4
9 10 14 8 5 9 7 3 6 3 2 4 2 3 2 4 5 6 7 6 8 6 3 1 2 3 3 3 2 2 3 2 3 3 3 5 4 5 6 4 3 3 2 2 3 4 3 2 3 4 3 3 3 3
4 13 5 8 7 7 7 5 4 0 4 1 4 3 4 4 5 4 4 8 5 1 3 2 3 2 3 3 3 4 4 3 4 4 6 6 4 4 4 3 2 3 3 3 3 3 4 4 4 3 2 4 3 2
8 7 7 12 10 11 4 3 7 8 6 5 3 6 5 4 2 1 6 2 3 3 2 3 4 3 5 5 4 4 2 2 3 3 4 4 4 4 4 4 2 3 4 3 2 3 4 6 5 4 4 4 3 4
13 13 11 9 10 4 4 8 5 5 5 6 5 4 5 3 4 5 4 3 4 2 2 2 2 4 3 3 2 3 4 2 3 4 3 2 3 4 3 4 3 4 5 4 4 4 3 4 6 4 4 3 3 3
14 15 10 11 6 8 9 7 8 7 4 4 4 5 5 4 4 5 1 4 3 2 3 2 1 2 3 4 3 4 4 4 3 4 4 4 2 3 4 3 4 5 3 0 3 3 4 4 3 4 3 3 5 6
14 7 8 5 6 6 3 5 5 4 3 5 3 4 3 3 6 1 3 3 3 3 3 3 2 3 3 5 4 3 4 4 3 2 5 5 5 4 4 5 6 6 4 3 2 3 5 4 4 6 6 6 6 4
10 7 4 0 2 2 3 2 1 4 5 5 4 7 4 6 2 5 3 3 3 4 3 3 4 4 5 6 4 5 4 4 6 6 5 5 6 6 7 7 7 6 4 4 4 4 6 7 7 7 7 7 6 6
3 4 4 6 3 1 4 3 4 2 2 2 1 4 4 5 5 4 5 3 3 1 3 5 5 5 6 7 6 5 6 2 4 7 7 8 8 7 7 8 8 12 7 5 5 5 6 8 8 8 7 9 10 5
4 3 1 5 4 5 3 3 2 3 2 3 3 3 4 4 4 3 3 1 1 2 4 4 3 1 5 4 5 4 3 2 3 5 5 5 4 5 4 4 4 4 4 5 10 12 11 9 10 10 12 10 10 9
5 2 3 2 4 3 3 3 3 2 1 2 2 4 4 5 6 2 2 2 2 4 3 3 3 1 4 2 6 7 3 6 7 6 5 6 6 3 3 4 5 6 6 5 8 8 11 8 8 6 7 8 7 9
1 2 3 1 1 3 3 1 1 1 1 1 1 3 5 6 8 4 4 4 2 1 2 5 4 4 4 4 4 4 7 3 7 10 9 8 8 8 8 8 7 6 5 6 7 8 9 8 8 10 11 13 14 12
3 3 2 3 4 2 2 3 2 1 2 1 3 1 4 4 5 5 4 4 2 2 7 4 3 6 6 5 5 6 11 9 8 8 10 9 9 11 10 8 7 6 7 9 9 9 10 11 11 11 13 16 16 15
1 0 1 2 4 5 4 4 3 5 1 2 4 3 3 3 7 5 2 6 6 5 5 5 5 5 7 8 9 9 8 9 11 13 15 16 17 15 10 8 7 8 9 10 10 10 12 14 14 16 16 16 17 17
Wind_Direction
31 45 61 108 149 148 140 137 135 137 124 103 86 72 56 120 127 80 65 13 119 117 14 343 19 1 4 168 160 159 109 318 96 174 142 192 124 204 107 182 172 155 152 185 109 145 254 177 50 175 232 44 4 10
57 57 69 87 113 121 130 129 133 135 122 100 84 81 98 71 80 88 69 9 53 77 25 264 141 31 344 310 126 30 142 158 157 121 127 111 117 119 155 192 303 209 177 171 190 208 224 175 330 93 127 95 29 29
49 58 48 85 97 103 109 114 118 123 117 99 85 76 72 67 87 94 119 351 87 116 61 8 358 328 322 303 280 141 10 131 98 204 140 146 120 124 154 233 106 271 220 173 99 253 217 138 124 140 152 108 102 74
48 65 68 78 113 103 98 95 96 99 99 87 74 74 82 70 86 108 83 344 75 80 96 340 298 5 308 346 57 137 120 90 109 88 101 116 120 181 197 151 141 197 132 160 275 289 317 216 230 161 132 96 85 88
52 65 78 84 98 98 90 85 82 82 79 72 64 72 83 83 78 71 43 30 45 206 136 54 306 353 0 12 35 42 75 98 60 67 66 90 119 114 229 88 17 198 174 178 215 176 122 80 90 106 116 34 38 34
69 76 80 83 88 87 81 70 68 69 66 75 56 58 82 27 64 79 23 338 359 23 103 69 270 336 346 11 28 29 27 53 67 86 94 100 233 100 100 103 280 281 310 326 143 117 82 104 79 43 85 54 39 53
85 88 84 80 72 70 66 65 65 63 58 55 69 67 66 61 75 81 197 263 312 47 88 68 1 5 340 357 10 15 18 50 64 88 69 104 52 52 93 114 309 200 42 39 38 116 76 31 75 44 76 59 60 62
79 80 82 75 63 60 59 49 46 55 62 72 97 95 79 43 51 31 5 350 353 84 59 101 331 14 1 18 69 356 31 34 31 93 90 70 50 13 68 28 30 9 38 55 33 33 94 110 70 42 23 36 59 42
72 70 69 61 54 51 50 42 37 51 74 108 97 66 56 38 40 286 321 316 18 93 103 74 121 204 342 22 46 45 23 55 3 46 61 38 358 57 21 9 26 5 355 333 5 48 45 54 55 53 53 37 63 20
79 73 67 59 58 43 45 44 31 37 120 98 45 33 7 333 323 348 11 24 8 347 32 87 309 61 41 352 25 81 32 53 77 17 18 60 82 90 32 32 12 7 358 349 36 26 13 40 28 26 45 30 43 24
73 68 60 52 41 43 44 38 43 60 52 43 66 94 263 355 39 30 33 44 341 26 7 329 342 96 337 96 142 8 121 13 77 315 87 18 86 67 10 25 18 9 4 13 15 29 22 32 10 18 20 14 8 6
73 52 43 40 34 25 39 33 40 62 117 167 120 66 41 32 33 67 354 346 44 207 324 95 321 113 22 33 85 344 100 48 117 285 71 78 75 26 12 7 6 12 3 6 12 18 14 28 13 16 21 6 357 339
60 56 57 41 40 39 30 17 9 142 104 45 45 51 51 318 51 96 205 303 1 304 300 344 48 37 12 39 57 65 65 60 272 44 131 59 46 14 4 358 350 7 7 11 8 12 20 20 28 30 11 360 341 356
58 63 64 48 37 30 18 359 10 78 60 61 73 36 82 345 19 163 178 190 256 280 325 1 66 72 260 56 58 76 298 32 51 67 238 21 356 345 352 358 3 351 357 1 5 358 6 10 11 12 15 346 356 20
83 70 59 50 31 11 42 50 61 38 57 63 48 59 36 233 194 262 246 305 347 298 327 20 49 55 16 67 42 90 42 39 176 208 13 348 337 342 353 356 354 353 352 353 350 355 353 353 1 1 12 359 9 6
77 56 13 49 37 22 54 41 35 59 55 58 31 58 346 65 6 9 360 348 5 329 317 28 74 55 33 91 55 60 97 176 296 36 319 325 339 347 349 347 345 336 332 337 342 337 332 350 354 331 324 6 6 7
66 31 347 36 62 49 39 69 55 47 66 43 27 52 80 101 172 291 314 327 321 344 49 61 56 202 329 46 48 16 86 283 287 315 327 331 327 329 321 321 329 335 339 343 343 347 338 331 337 9 17 348 342 349
61 314 13 27 82 52 41 37 70 68 70 24 69 329 12 36 323 324 329 331 357 35 53 98 107 50 76 109 66 347 356 300 258 277 310 310 307 313 313 323 325 329 340 334 336 309 324 6 15 3 330 331 329 1
57 36 28 38 79 83 68 30 37 90 57 15 43 22 42 342 288 299 321 332 9 351 58 32 57 55 33 56 227 303 312 324 309 312 300 279 266 334 328 327 321 339 338 341 344 335 322 295 291 321 322 339 348 333
59 34 31 41 55 76 71 20 28 82 75 292 45 20 28 44 317 347 359 9 34 41 39 40 59 241 240 249 200 230 246 273 317 321 305 305 0 340 322 317 315 307 315 322 318 355 346 346 313 316 315 300 331 323
33 347 14 52 63 65 85 8 52 84 135 74 297 36 1 11 22 9 4 348 57 40 53 251 242 250 253 252 218 208 254 221 220 203 248 300 317 323 311 313 320 312 334 324 331 318 329 281 266 281 270 281 266 260
355 14 40 15 69 52 75 19 103 244 63 156 44 29 31 23 348 360 310 43 58 245 187 220 255 263 296 286 255 214 231 236 253 255 261 266 283 311 315 290 333 302 274 252 229 264 276 264 272 275 297 299 311 308
18 28 46 15 67 41 331 3 58 6 56 344 15 37 14 1 282 359 68 103 227 237 215 221 255 257 244 290 328 300 240 199 279 274 282 267 271 271 270 284 271 280 304 294 218 280 288 309 313 320 321 332 354 331
33 44 35 40 27 21 343 23 27 27 38 25 34 24 356 311 319 52 65 286 256 313 338 279 14 324 336 356 296 266 272 181 271 288 251 232 288 279 229 270 264 242 237 283 297 299 305 307 329 335 327 323 314 298
60 3 29 6 4 28 31 15 359 26 47 334 43 4 346 348 53 49 52 279 313 291 270 304 290 196 211 264 271 264 229 178 219 270 269 195 245 303 291 263 266 247 180 202 313 311 306 313 317 311 301 305 310 309
65 333 44 339 357 42 345 41 20 3 11 21 351 285 347 45 53 328 256 243 243 230 239 227 231 309 283 211 248 288 263 183 140 224 270 185 196 206 258 296 310 298 192 172 178 288 290 283 282 304 302 298 289 293
51 346 337 326 122 123 54 29 93 70 45 14 321 346 18 54 326 262 277 227 219 235 210 201 183 206 241 272 257 256 257 190 207 237 271 253 235 215 223 243 252 244 164 189 210 215 258 281 281 274 275 281 252 246
122 18 44 329 11 359 119 60 48 31 282 243 53 21 121 185 235 242 218 236 208 301 281 262 232 226 239 249 257 271 279 270 284 269 265 254 243 236 226 237 247 253 250 229 233 232 227 242 254 262 263 270 283 255
33 328 151 2 6 38 57 113 221 242 204 121 155 253 246 236 246 237 267 243 90 31 308 319 302 306 262 258 247 237 231 144 40 327 315 290 323 298 204 221 241 244 241 248 261 260 252 243 248 250 254 258 265 270
336 32 37 19 61 11 265 166 233 252 237 209 270 301 280 266 249 229 275 298 272 251 238 247 276 78 275 326 305 307 230 189 197 198 223 259 246 248 239 243 248 251 243 234 263 275 278 284 287 293 282 274 266 268
305 21 40 50 178 254 245 275 319 317 342 284 284 206 261 308 305 242 211 215 223 20 338 293 294 210 227 247 221 284 301 229 212 230 241 263 272 272 270 265 257 250 238 238 253 258 265 269 262 266 265 263 264 260
6 71 64 354 304 293 26 31 306 288 295 327 270 289 301 336 288 281 200 133 98 279 242 207 240 272 212 234 240 237 248 273 269 248 238 246 254 256 259 259 255 243 247 251 252 253 252 250 263 261 264 267 268 267
6 167 198 339 339 349 340 360 360 327 311 284 262 205 226 206 248 277 270 216 216 213 235 236 236 250 255 252 252 264 251 251 256 262 265 259 256 259 264 260 252 244 246 251 254 253 256 255 257 260 262 263 266 268